User: anonymous   Login
Location: Rumah Dana
(3.1167°N, 113.0167°E)
Time: 01:19:20
(UTC+00:00)
Language:

SL-16 R/B - Orbit

View from above orbital plane
View from above orbital plane
View from above satellite
View from above satellite

Ground track
Ground track

The orbit data is extracted from the following two-line orbital elements,

1 28353U 04021B   24282.31668278  .00000628  00000-0  35240-3 0  9990
2 28353  71.0003 238.1399 0002565 116.5104 243.6282 14.14471936 49678
Epoch (UTC): 08 October 2024 07:36:01
Eccentricity: 0.0002565
inclination: 71.0003°
perigee height: 842 km
apogee height: 846 km
right ascension of ascending node: 238.1399°
argument of perigee: 116.5104°
revolutions per day: 14.14471936
mean anomaly at epoch: 243.6282°
orbit number at epoch: 4967

The dashed part of the orbit path shows where the satellite is in the earth's shadow,  

DLR